• In Uzbekistan
  • List of Countries
  • For 7 days
  • Water Temperature
  • Satellite Maps
  • Weather Map
  • Weather Widgets
  • user-avatar
    Login

    Hourly Weather Hobart

    Today, 25 July, Tuesday

    Time Temperature Precipitation Wind Pressure Humidity
    00:00 +5°C° 0 mm 4 mps 744 mmHg 84%
    01:00 +6°C° 0 mm 4 mps 744 mmHg 84%
    02:00 +6°C° 0 mm 4 mps 744 mmHg 85%
    03:00 +7°C° 0 mm 3 mps 744 mmHg 86%
    04:00 +5°C° 0 mm 4 mps 743 mmHg 86%
    05:00 +5°C° 0 mm 4 mps 743 mmHg 88%
    06:00 +5°C° 0 mm 4 mps 742 mmHg 89%
    07:00 +5°C° 0 mm 4 mps 742 mmHg 91%
    08:00 +7°C° 0 mm 4 mps 741 mmHg 85%
    09:00 +10°C° 0 mm 4 mps 741 mmHg 79%
    10:00 +12°C° 0 mm 3 mps 741 mmHg 70%
    11:00 +13°C° 0 mm 4 mps 740 mmHg 65%
    12:00 +13°C° 0 mm 4 mps 740 mmHg 59%
    13:00 +14°C° 0 mm 5 mps 740 mmHg 54%
    14:00 +13°C° 0 mm 4 mps 740 mmHg 56%
    15:00 +13°C° 0 mm 4 mps 739 mmHg 58%
    16:00 +12°C° 0 mm 3 mps 738 mmHg 62%
    17:00 +10°C° 0 mm 3 mps 738 mmHg 69%
    18:00 +9°C° 0 mm 3 mps 738 mmHg 76%
    19:00 +8°C° 0 mm 3 mps 738 mmHg 82%
    20:00 +7°C° 0 mm 3 mps 738 mmHg 84%
    21:00 +7°C° 0 mm 3 mps 738 mmHg 85%
    22:00 +7°C° 0 mm 2 mps 737 mmHg 87%
    23:00 +7°C° 0.1 mm 2 mps 737 mmHg 88%

    Tomorrow, 26 July, Wednesday

    Time Temperature Precipitation Wind Pressure Humidity
    00:00 +7°C° 0.1 mm 2 mps 737 mmHg 89%
    01:00 +7°C° 0.1 mm 2 mps 737 mmHg 90%
    02:00 +7°C° 0.8 mm 3 mps 737 mmHg 91%
    03:00 +7°C° 0.8 mm 3 mps 737 mmHg 91%
    04:00 +6°C° 0.8 mm 4 mps 738 mmHg 92%
    05:00 +6°C° 0.8 mm 4 mps 739 mmHg 93%
    06:00 +6°C° 0.8 mm 5 mps 740 mmHg 93%
    07:00 +4°C° 0.8 mm 6 mps 740 mmHg 94%
    08:00 +4°C° 0.1 mm 6 mps 742 mmHg 91%
    09:00 +4°C° 0.1 mm 6 mps 743 mmHg 88%
    10:00 +5°C° 0.1 mm 6 mps 744 mmHg 85%
    11:00 +5°C° 0.1 mm 6 mps 745 mmHg 80%
    12:00 +5°C° 0.1 mm 6 mps 745 mmHg 74%
    13:00 +7°C° 0.1 mm 6 mps 746 mmHg 68%
    14:00 +6°C° 0.1 mm 5 mps 746 mmHg 68%
    15:00 +6°C° 0.1 mm 5 mps 747 mmHg 68%
    16:00 +6°C° 0.1 mm 5 mps 747 mmHg 67%
    17:00 +5°C° 0.1 mm 4 mps 748 mmHg 74%
    18:00 +4°C° 0.1 mm 4 mps 748 mmHg 80%
    19:00 +3°C° 0.1 mm 4 mps 749 mmHg 87%
    20:00 +1°C° 0 mm 4 mps 750 mmHg 88%
    21:00 +1°C° 0 mm 4 mps 750 mmHg 90%
    22:00 0°C° 0 mm 4 mps 750 mmHg 92%
    23:00 +1°C° 0 mm 3 mps 751 mmHg 92%

    Day after tomorrow, 27 July, Thursday

    Time Temperature Precipitation Wind Pressure Humidity
    00:00 +1°C° 0 mm 3 mps 751 mmHg 93%
    01:00 0°C° 0 mm 3 mps 751 mmHg 93%
    02:00 0°C° 0 mm 3 mps 751 mmHg 93%
    03:00 0°C° 0 mm 3 mps 751 mmHg 94%
    04:00 0°C° 0 mm 3 mps 751 mmHg 94%
    05:00 0°C° 0 mm 3 mps 751 mmHg 94%
    06:00 +1°C° 0 mm 2 mps 751 mmHg 94%
    07:00 +1°C° 0 mm 2 mps 751 mmHg 94%
    08:00 +2°C° 0 mm 2 mps 751 mmHg 85%
    09:00 +4°C° 0 mm 2 mps 750 mmHg 76%
    10:00 +6°C° 0 mm 2 mps 750 mmHg 67%
    11:00 +8°C° 0 mm 3 mps 749 mmHg 61%
    12:00 +9°C° 0 mm 3 mps 748 mmHg 56%
    13:00 +11°C° 0 mm 4 mps 748 mmHg 50%
    14:00 +11°C° 0 mm 4 mps 747 mmHg 55%
    15:00 +10°C° 0 mm 4 mps 746 mmHg 60%
    16:00 +10°C° 0 mm 4 mps 745 mmHg 64%
    17:00 +8°C° 0 mm 5 mps 745 mmHg 69%
    18:00 +7°C° 0 mm 5 mps 744 mmHg 73%
    19:00 +6°C° 0 mm 5 mps 744 mmHg 78%
    20:00 +7°C° 0.1 mm 5 mps 743 mmHg 80%
    21:00 +7°C° 0.1 mm 6 mps 743 mmHg 81%
    22:00 +7°C° 0.1 mm 6 mps 742 mmHg 83%
    23:00 +7°C° 0.3 mm 5 mps 742 mmHg 86%

    28 July, Friday

    Time Temperature Precipitation Wind Pressure Humidity
    00:00 +7°C° 0.3 mm 5 mps 741 mmHg 89%
    01:00 +7°C° 0.3 mm 4 mps 741 mmHg 92%
    02:00 +7°C° 0.1 mm 4 mps 741 mmHg 92%
    03:00 +7°C° 0.1 mm 3 mps 740 mmHg 92%
    04:00 +7°C° 0.1 mm 3 mps 740 mmHg 92%
    05:00 +7°C° 0 mm 3 mps 741 mmHg 92%
    06:00 +6°C° 0 mm 4 mps 741 mmHg 92%
    07:00 +6°C° 0 mm 4 mps 742 mmHg 92%
    08:00 +7°C° 0 mm 4 mps 742 mmHg 88%
    09:00 +7°C° 0 mm 5 mps 743 mmHg 84%
    10:00 +8°C° 0 mm 5 mps 744 mmHg 79%
    11:00 +8°C° 0.1 mm 5 mps 744 mmHg 78%
    12:00 +9°C° 0.1 mm 5 mps 744 mmHg 77%
    13:00 +9°C° 0.1 mm 5 mps 744 mmHg 75%
    14:00 +9°C° 0 mm 5 mps 745 mmHg 74%
    15:00 +8°C° 0 mm 4 mps 745 mmHg 73%
    16:00 +8°C° 0 mm 4 mps 746 mmHg 71%
    17:00 +8°C° 0 mm 3 mps 746 mmHg 78%
    18:00 +5°C° 0 mm 3 mps 747 mmHg 84%
    19:00 +5°C° 0 mm 2 mps 747 mmHg 90%
    20:00 +4°C° 0 mm 2 mps 747 mmHg 92%
    21:00 +3°C° 0 mm 2 mps 747 mmHg 93%
    22:00 +3°C° 0 mm 2 mps 747 mmHg 94%
    23:00 +3°C° 0 mm 2 mps 746 mmHg 90%

    29 July, Saturday

    Time Temperature Precipitation Wind Pressure Humidity
    00:00 +3°C° 0 mm 2 mps 746 mmHg 85%
    01:00 +3°C° 0 mm 2 mps 745 mmHg 81%
    02:00 +3°C° 0 mm 3 mps 744 mmHg 75%
    03:00 +3°C° 0 mm 4 mps 743 mmHg 70%
    04:00 +4°C° 0 mm 4 mps 742 mmHg 64%
    05:00 +5°C° 0 mm 5 mps 742 mmHg 66%
    06:00 +6°C° 0 mm 5 mps 741 mmHg 68%
    07:00 +7°C° 0 mm 5 mps 740 mmHg 69%
    08:00 +9°C° 0.1 mm 6 mps 740 mmHg 67%
    09:00 +11°C° 0.1 mm 6 mps 739 mmHg 65%
    10:00 +14°C° 0.1 mm 7 mps 738 mmHg 63%
    11:00 +14°C° 0 mm 7 mps 737 mmHg 59%
    12:00 +15°C° 0 mm 7 mps 736 mmHg 54%
    13:00 +16°C° 0 mm 8 mps 735 mmHg 50%
    14:00 +15°C° 0.1 mm 7 mps 735 mmHg 59%
    15:00 +12°C° 0.1 mm 7 mps 734 mmHg 68%
    16:00 +11°C° 0.1 mm 7 mps 734 mmHg 77%
    17:00 +10°C° 0.4 mm 6 mps 734 mmHg 82%
    18:00 +9°C° 0.4 mm 5 mps 735 mmHg 87%
    19:00 +8°C° 0.4 mm 5 mps 735 mmHg 92%
    20:00 +8°C° 0.1 mm 4 mps 735 mmHg 92%
    21:00 +8°C° 0.1 mm 4 mps 735 mmHg 92%
    22:00 +8°C° 0.1 mm 3 mps 736 mmHg 91%
    23:00 +7°C° 0 mm 4 mps 736 mmHg 91%

    30 July, Sunday

    Time Temperature Precipitation Wind Pressure Humidity
    00:00 +7°C° 0 mm 4 mps 736 mmHg 90%
    01:00 +7°C° 0 mm 4 mps 736 mmHg 90%
    02:00 +6°C° 0 mm 4 mps 736 mmHg 90%
    03:00 +5°C° 0 mm 4 mps 736 mmHg 91%
    04:00 +5°C° 0 mm 4 mps 736 mmHg 91%
    05:00 +5°C° 0 mm 3 mps 736 mmHg 92%
    06:00 +4°C° 0 mm 3 mps 736 mmHg 92%
    07:00 +4°C° 0 mm 3 mps 736 mmHg 93%
    08:00 +7°C° 0.1 mm 3 mps 736 mmHg 90%
    09:00 +8°C° 0.1 mm 3 mps 736 mmHg 86%
    10:00 +8°C° 0.1 mm 4 mps 736 mmHg 83%
    11:00 +8°C° 1.5 mm 5 mps 735 mmHg 84%
    12:00 +7°C° 1.5 mm 6 mps 735 mmHg 85%
    13:00 +6°C° 1.5 mm 7 mps 735 mmHg 86%
    14:00 +6°C° 0.1 mm 7 mps 736 mmHg 82%
    15:00 +6°C° 0.1 mm 7 mps 736 mmHg 78%
    16:00 +7°C° 0.1 mm 6 mps 737 mmHg 75%
    17:00 +7°C° 0 mm 6 mps 738 mmHg 79%
    18:00 +5°C° 0 mm 6 mps 739 mmHg 83%
    19:00 +5°C° 0 mm 5 mps 740 mmHg 87%
    20:00 +5°C° 0 mm 5 mps 741 mmHg 86%
    21:00 +5°C° 0 mm 5 mps 741 mmHg 86%
    22:00 +5°C° 0 mm 5 mps 742 mmHg 86%
    23:00 +5°C° 0 mm 5 mps 742 mmHg 87%
    Show more